This is the latest recevied weather packets stored in our database for station/object KC5AV. If no packets are shown the sender has not sent any weather packets the latest 10 day(s).
| Time | Temp. | Humidity | Pressure | Rain* | Wind** | Luminosity | Snow |
|---|---|---|---|---|---|---|---|
| 1778092925 | 19.44° C | 82% | 1013.3 hPa | 0 mm | - | 88 W/m² | - |
| 1778092621 | 20° C | 81% | 1013.4 hPa | 0 mm | - | 132 W/m² | - |
| 1778092317 | 20° C | 80% | 1013.5 hPa | 0 mm | - | 131 W/m² | - |
| 1778092015 | 21.11° C | 79% | 1013.3 hPa | 0 mm | - | 158 W/m² | - |
| 1778091712 | 20.56° C | 80% | 1012.8 hPa | 0 mm | - | 454 W/m² | - |
| 1778091410 | 20° C | 80% | 1012.5 hPa | 0 mm | - | 524 W/m² | - |
| 1778091107 | 20° C | 80% | 1012.9 hPa | 0 mm | - | 415 W/m² | - |
| 1778090804 | 20° C | 81% | 1013 hPa | 0 mm | - | 413 W/m² | - |
| 1778090500 | 19.44° C | 80% | 1013.1 hPa | 0 mm | - | 408 W/m² | - |
| 1778090196 | 20° C | 79% | 1013.6 hPa | 0 mm | - | 290 W/m² | - |
| 1778089893 | 19.44° C | 81% | 1013.6 hPa | 0 mm | - | 340 W/m² | - |
| 1778089591 | 18.89° C | 81% | 1013.8 hPa | 0 mm | - | 359 W/m² | - |
| 1778089288 | 18.89° C | 82% | 1014.3 hPa | 0 mm | - | 244 W/m² | - |
| 1778088985 | 18.33° C | 81% | 1014.7 hPa | 0 mm | - | 235 W/m² | - |
| 1778088682 | 18.89° C | 81% | 1014.4 hPa | 0 mm | - | 315 W/m² | - |
| 1778088379 | 18.33° C | 84% | 1014.4 hPa | 0 mm | - | 358 W/m² | - |
| 1778088075 | 18.33° C | 83% | 1014.4 hPa | 0 mm | - | 350 W/m² | - |
| 1778087773 | 18.33° C | 82% | 1014.8 hPa | 0 mm | - | 262 W/m² | - |
| 1778087471 | 18.33° C | 83% | 1015.1 hPa | 0 mm | - | 205 W/m² | - |
| 1778087168 | 18.33° C | 82% | 1015.1 hPa | 0 mm | - | 164 W/m² | - |
| 1778086865 | 17.78° C | 84% | 1014.9 hPa | 0 mm | - | 175 W/m² | - |
| 1778086564 | 17.78° C | 84% | 1015.3 hPa | 0 mm | - | 115 W/m² | - |
| 1778086259 | 17.78° C | 84% | 1015.1 hPa | 0 mm | - | 96 W/m² | - |
| 1778085957 | 17.78° C | 82% | 1015.3 hPa | 0 mm | - | 101 W/m² | - |
| 1778085654 | 18.33° C | 83% | 1015 hPa | 0 mm | - | 127 W/m² | - |
* Rain latest hour (hover to see other rain measurements)
** Current wind speed in m/s (hover to see current wind gust speed)